Weather reports worldwide

Advertisment
San Jose, ca, United States of America (2074876): temperature & dewpoint: 31.07.2020 15:00:00 - 06.08.2020 15:00:00 (PDT)San Jose, ca, United States of America (2074876): wind speed & gusts: 31.07.2020 15:00:00 - 06.08.2020 15:00:00 (PDT)San Jose, ca, United States of America (2074876): wind direction: 31.07.2020 15:00:00 - 06.08.2020 15:00:00 (PDT)San Jose, ca, United States of America (2074876): reduced air pressure: 31.07.2020 15:00:00 - 06.08.2020 15:00:00 (PDT)San Jose, ca, United States of America (2074876): visibility: 31.07.2020 15:00:00 - 06.08.2020 15:00:00 (PDT)
Date & Time tt [°C] td [°C] ff [km/h] ff [kn] fx [km/h] fx [kn] dd ppp [hPa] vv [km]
06.08.2020 15:00:00 26,7 13,9 16 9 - - NNW 1012,4 16
06.08.2020 14:00:00 26,1 13,3 15 8 - - NNW 1012,6 16
06.08.2020 13:00:00 24,4 12,2 9 5 - - ENE 1012,9 16
06.08.2020 12:00:00 22,8 12,2 8 4 - - - 1013,2 16
06.08.2020 11:00:00 20,0 12,2 8 4 - - ESE 1013,2 16
06.08.2020 10:00:00 19,4 12,2 16 9 - - SE 1013,0 16
06.08.2020 09:00:00 18,3 12,2 16 9 - - SE 1012,8 16
06.08.2020 08:00:00 17,8 12,2 15 8 - - SE 1012,5 16
06.08.2020 07:00:00 17,8 12,2 15 8 - - SE 1012,4 16
06.08.2020 06:00:00 17,8 11,7 11 6 - - SSE 1012,2 16
06.08.2020 05:00:00 17,2 11,7 11 6 - - S 1012,3 16
06.08.2020 04:00:00 17,2 11,7 11 6 - - SE 1012,5 16
06.08.2020 03:00:00 17,2 12,2 9 5 - - S 1012,7 16
06.08.2020 02:00:00 17,2 12,2 5 3 - - - 1013,3 16
06.08.2020 01:00:00 16,7 12,2 8 4 - - W 1013,9 16
06.08.2020 00:00:00 17,2 11,7 13 7 - - W 1014,1 16
05.08.2020 23:00:00 17,2 11,7 11 6 - - SW 1014,4 16
05.08.2020 22:00:00 17,2 11,7 8 4 - - W 1014,7 16
05.08.2020 21:00:00 17,8 11,1 11 6 - - WSW 1014,5 16
05.08.2020 20:00:00 17,8 11,1 15 8 - - NNW 1014,3 16
05.08.2020 19:00:00 18,9 11,1 18 10 - - NW 1014,4 16
05.08.2020 18:00:00 18,9 11,7 21 11 - - WNW 1014,6 16
05.08.2020 17:00:00 19,4 11,7 22 12 - - WNW 1014,9 16
05.08.2020 16:00:00 21,7 11,7 26 14 - - NW 1015,1 16
05.08.2020 15:00:00 22,8 11,7 16 9 - - W 1015,1 16
05.08.2020 14:00:00 22,2 11,7 18 10 - - WNW 1015,2 16
05.08.2020 13:00:00 21,1 11,7 16 9 - - WNW 1015,4 16
05.08.2020 12:00:00 20,6 11,7 22 12 - - WNW 1015,6 16
05.08.2020 11:00:00 19,4 11,7 13 7 - - W 1015,6 16
05.08.2020 10:00:00 18,3 11,7 0 0 - - N 1015,3 16
05.08.2020 09:00:00 17,8 11,7 0 0 - - N 1015,3 16
05.08.2020 08:00:00 17,2 11,7 13 7 - - WNW 1015,2 16
05.08.2020 07:00:00 17,2 11,7 5 3 - - NNW 1014,9 16
05.08.2020 06:00:00 17,2 12,8 0 0 - - N 1014,7 16
05.08.2020 05:00:00 17,2 12,2 0 0 - - N 1014,6 16
05.08.2020 04:00:00 16,7 12,2 8 4 - - ENE 1014,7 16
05.08.2020 03:00:00 16,7 12,8 0 0 - - N 1014,7 16
05.08.2020 02:00:00 16,7 12,8 8 4 - - NE 1014,9 16
05.08.2020 01:00:00 16,7 12,8 9 5 - - N 1015,1 16
05.08.2020 00:00:00 17,2 12,8 11 6 - - N 1015,1 16
04.08.2020 23:00:00 17,2 12,8 13 7 - - N 1015,2 16
04.08.2020 22:00:00 17,8 12,8 15 8 - - N 1015,0 16
04.08.2020 21:00:00 18,9 13,3 13 7 - - N 1014,5 16
04.08.2020 20:00:00 20,0 13,3 16 9 - - N 1014,3 16
04.08.2020 19:00:00 21,1 13,3 26 14 - - NNW 1014,2 16
04.08.2020 18:00:00 22,8 13,3 22 12 - - NW 1014,2 16
04.08.2020 17:00:00 23,9 13,3 22 12 - - NNW 1014,1 16
04.08.2020 16:00:00 23,9 13,3 24 13 - - NNW 1014,4 16
04.08.2020 15:00:00 25,0 13,9 26 14 - - NNW 1014,6 16
04.08.2020 14:00:00 25,6 13,9 22 12 - - NNW 1014,5 16
04.08.2020 13:00:00 26,1 14,4 18 10 - - NNW 1014,7 16
04.08.2020 12:00:00 25,6 12,2 5 3 - - - 1014,8 16
04.08.2020 11:00:00 22,8 12,8 5 3 - - - 1015,0 16
04.08.2020 10:00:00 20,6 12,8 5 3 - - - 1015,1 16
04.08.2020 09:00:00 18,3 12,8 16 9 - - SE 1015,2 16
04.08.2020 08:00:00 16,7 12,8 11 6 - - S 1015,1 16
04.08.2020 07:00:00 15,6 12,2 8 4 - - S 1014,9 16
04.08.2020 06:00:00 15,0 12,2 9 5 - - SE 1015,0 16
04.08.2020 05:00:00 16,1 12,8 5 3 - - ESE 1015,2 16
04.08.2020 04:00:00 16,1 12,8 5 3 - - N 1015,3 16
04.08.2020 03:00:00 15,6 12,8 8 4 - - NNW 1015,2 16
04.08.2020 02:00:00 16,7 13,3 5 3 - - N 1015,3 16
04.08.2020 01:00:00 17,2 13,3 9 5 - - N 1015,5 16
04.08.2020 00:00:00 16,7 12,8 9 5 - - NW 1015,8 16
03.08.2020 23:00:00 17,8 12,8 9 5 - - N 1016,2 16
03.08.2020 22:00:00 18,3 12,8 9 5 - - NNW 1016,6 16
03.08.2020 21:00:00 19,4 13,3 13 7 - - N 1016,2 16
03.08.2020 20:00:00 21,7 13,3 16 9 - - N 1015,9 16
03.08.2020 19:00:00 23,3 13,3 21 11 - - N 1015,9 16
03.08.2020 18:00:00 24,4 13,3 28 15 - - N 1015,8 16
03.08.2020 17:00:00 27,2 11,7 35 19 48 26 N 1015,7 16
03.08.2020 16:00:00 29,4 12,2 34 18 - - NNW 1015,7 16
03.08.2020 15:00:00 30,0 11,1 28 15 - - NNW 1015,9 16
03.08.2020 14:00:00 30,0 12,2 21 11 - - NNW 1016,0 16
03.08.2020 13:00:00 30,6 9,4 15 8 - - NNW 1016,1 16
03.08.2020 12:00:00 28,3 10,0 8 4 - - - 1016,5 16
03.08.2020 11:00:00 25,6 11,1 0 0 - - N 1016,7 16
03.08.2020 10:00:00 23,3 11,1 5 3 - - - 1016,8 16
03.08.2020 09:00:00 21,1 11,7 0 0 - - N 1016,9 16
03.08.2020 08:00:00 18,3 12,2 0 0 - - N 1016,7 16
03.08.2020 07:00:00 16,7 12,2 0 0 - - N 1016,3 16
03.08.2020 06:00:00 16,7 12,2 0 0 - - N 1016,2 16
03.08.2020 05:00:00 16,7 12,2 0 0 - - N 1016,3 16
03.08.2020 04:00:00 16,7 12,2 0 0 - - N 1016,2 16
03.08.2020 03:00:00 17,8 12,2 0 0 - - N 1016,0 16
03.08.2020 02:00:00 17,8 12,2 0 0 - - N 1016,1 16
03.08.2020 01:00:00 17,8 12,2 5 3 - - NNE 1016,5 16
03.08.2020 00:00:00 17,2 11,7 11 6 - - NW 1016,7 16
02.08.2020 23:00:00 18,3 11,7 8 4 - - NW 1016,8 16
02.08.2020 22:00:00 18,9 11,7 8 4 - - NW 1017,1 16
02.08.2020 21:00:00 19,4 11,7 11 6 - - NW 1016,5 16
02.08.2020 20:00:00 21,1 12,2 16 9 - - NW 1016,2 16
02.08.2020 19:00:00 22,8 12,2 16 9 - - NNW 1016,0 16
02.08.2020 18:00:00 25,0 11,7 22 12 - - NW 1016,0 16
02.08.2020 17:00:00 26,1 12,2 18 10 - - NNW 1016,0 16
02.08.2020 16:00:00 26,1 13,3 26 14 - - NW 1016,1 16
02.08.2020 15:00:00 25,6 13,3 22 12 - - NNW 1016,1 16
02.08.2020 14:00:00 25,6 13,9 18 10 - - NW 1016,2 16
02.08.2020 13:00:00 26,7 12,8 9 5 - - - 1016,3 16
02.08.2020 12:00:00 25,0 12,8 9 5 - - NW 1016,7 16
02.08.2020 11:00:00 22,8 12,2 8 4 - - NW 1017,0 16
02.08.2020 10:00:00 19,4 12,8 0 0 - - N 1017,3 16
02.08.2020 09:00:00 17,2 12,8 0 0 - - N 1017,5 16
02.08.2020 08:00:00 16,1 12,8 0 0 - - N 1017,3 16
02.08.2020 07:00:00 15,6 12,8 0 0 - - N 1016,7 16
02.08.2020 06:00:00 15,6 12,8 0 0 - - N 1016,2 16
02.08.2020 05:00:00 15,6 12,8 0 0 - - N 1016,2 16
02.08.2020 04:00:00 15,6 12,8 5 3 - - N 1016,3 16
02.08.2020 03:00:00 15,6 12,8 9 5 - - N 1016,4 16
02.08.2020 02:00:00 15,6 12,8 8 4 - - NW 1016,4 16
02.08.2020 01:00:00 16,1 12,8 9 5 - - NNW 1016,5 16
02.08.2020 00:00:00 16,7 13,3 8 4 - - NNW 1016,3 16
01.08.2020 23:00:00 16,7 13,3 9 5 - - NW 1016,5 16
01.08.2020 22:00:00 18,3 12,8 15 8 - - NNW 1016,2 16
01.08.2020 21:00:00 19,4 13,3 15 8 - - NW 1015,6 16
01.08.2020 20:00:00 21,1 12,8 13 7 - - NW 1015,4 16
01.08.2020 19:00:00 23,3 12,8 16 9 - - NW 1015,2 16
01.08.2020 18:00:00 24,4 12,2 18 10 - - NNW 1015,1 16
01.08.2020 17:00:00 25,6 12,8 21 11 - - NW 1015,1 16
01.08.2020 16:00:00 26,1 12,8 21 11 - - NW 1015,3 16
01.08.2020 15:00:00 26,1 11,7 18 10 - - NW 1015,8 16
01.08.2020 14:00:00 24,4 12,8 18 10 - - NW 1016,2 16
01.08.2020 13:00:00 25,6 11,7 16 9 - - NNW 1016,5 16
01.08.2020 12:00:00 24,4 10,6 11 6 - - NNW 1017,1 16
01.08.2020 11:00:00 22,8 12,2 11 6 - - N 1017,2 16
01.08.2020 10:00:00 19,4 12,2 5 3 - - SW 1017,4 16
01.08.2020 09:00:00 17,8 12,2 0 0 - - N 1017,6 16
01.08.2020 08:00:00 16,7 12,2 0 0 - - N 1017,5 16
01.08.2020 07:00:00 15,0 12,2 0 0 - - N 1017,1 16
01.08.2020 06:00:00 14,4 11,7 5 3 - - NW 1016,4 16
01.08.2020 05:00:00 15,0 11,7 5 3 - - NNW 1016,0 16
01.08.2020 04:00:00 15,0 12,2 5 3 - - E 1015,8 16
01.08.2020 03:00:00 14,4 11,7 0 0 - - N 1015,9 16
01.08.2020 02:00:00 15,6 12,2 8 4 - - N 1016,1 16
01.08.2020 01:00:00 15,6 12,2 9 5 - - NNW 1016,2 16
01.08.2020 00:00:00 15,6 11,7 8 4 - - NW 1016,4 16
31.07.2020 23:00:00 17,2 12,8 11 6 - - NNW 1016,5 16
31.07.2020 22:00:00 17,8 12,2 9 5 - - NW 1016,6 16
31.07.2020 21:00:00 18,9 12,2 13 7 - - NNW 1016,1 16
31.07.2020 20:00:00 20,6 11,1 16 9 - - NNW 1015,6 16
31.07.2020 19:00:00 22,8 11,1 21 11 - - NNW 1015,5 16
31.07.2020 18:00:00 24,4 11,7 24 13 - - NNW 1015,2 16
31.07.2020 17:00:00 25,6 12,8 22 12 - - NNW 1015,4 16
31.07.2020 16:00:00 24,4 13,3 16 9 - - NW 1015,8 16
31.07.2020 15:00:00 23,9 13,3 21 11 - - NW 1016,3 16

tt = temperature
td = dewpoint
ff = wind speed
fx = gusts
dd = wind direction
ppp = reduced air pressure
vv = visibility

Next stations